Flag for United Kingdom Weather past 2 weeks in Market Harborough, England, United Kingdom

54 °F


Feels Like: 50 °F
Forecast: N/A
Wind: 14 mph from Southwest

Location: Church Lawford

Current Time: Dec 1, 2015 at 3:43:36 PM

Latest Report: Dec 1, 2015 at 3:00 PM

Visibility: 11 mi

Pressure: 30.13 "Hg

Humidity: 83%

Dew point: 49 °F

Location of Market HarboroughLocation

Historic Weather in Market Harborough — Graph


Market Harborough temperature yesterday

Maximum temperature yesterday: 55 °F (at 4:00 PM)
Minimum temperature yesterday: 42 °F (at 2:00 AM)
Average temperature yesterday: 49 °F

Past Weeks' High & Low Weather Summary

High59 °F (Nov 17, 3:00 PM)100% (Nov 17, 4:00 AM)30.28 "Hg (Nov 17, 4:00 AM)
Low30 °F (Nov 22, 3:00 AM)61% (Nov 17, 8:00 PM)29.38 "Hg (Nov 17, 3:00 PM)
Average45 °F86%29.85 "Hg
* Reported Nov 16 3:00 PM — Dec 1 2:00 PM, Market Harborough, Weather by CustomWeather, © 2015

Note: Actual official high and low records may vary slightly from our data, if they occured in-between our weather recording intervals... More about our weather records


Market Harborough weather history for previous 24 hours

Time TempWeatherWind HumidityBarometerVisibility
2:00 PM
Tue, Dec 1
55 °FCool.12 mph84%30.14 "Hg11 mi
1:00 PM55 °FCool.14 mph82%30.13 "Hg11 mi
12:00 PM55 °FCool.12 mph84%30.14 "Hg14 mi
11:00 AM54 °FCool.7 mph88%30.14 "Hg16 mi
10:00 AM54 °FCool.8 mph88%30.14 "Hg19 mi
9:00 AM53 °FCool.10 mph92%30.12 "Hg14 mi
8:00 AM52 °FCool.8 mph99%30.11 "Hg8 mi
6:00 AM46 °FCool.3 mph100%30.10 "Hg2 mi
5:00 AM45 °FDrizzle. Overcast.3 mph99%30.10 "Hg2 mi
2:00 AM44 °FQuite cool.3 mph97%30.10 "Hg4 mi
9:00 PM
Mon, Nov 30
46 °FCool.9 mph89%30.00 "Hg28 mi
8:00 PM47 °FCool.8 mph96%29.96 "Hg5 mi
7:00 PM50 °FLight rain. Overcast.14 mph97%29.90 "Hg3 mi
6:00 PM54 °FLight rain. Overcast.23 mph91%29.84 "Hg5 mi
4:00 PM55 °FLight rain. Overcast.14 mph84%29.78 "Hg31 mi
3:00 PM53 °FCool.15 mph89%29.77 "Hg22 mi
Weather by CustomWeather, © 2015

See weather overviewHow to use our weather pages